Home > Time Zones > World Clock > Weather > Peru > Ica > Past weeks

Flag for Peru Weather past 2 weeks in Ica, Ica, Peru

Now
75 °F

Partly sunny.


Feels Like: 76 °F
Forecast: 70 / 87 °F
Wind: 9 mph from Northwest

Location: Pisco Airport

Current Time: Jan 31, 2015 at 12:59:51 PM

Latest Report: Jan 31, 2015 at 11:00 AM


Visibility: N/A

Pressure: 29.86 "Hg

Humidity: 78%

Dew point: 68 °F

Location of IcaLocation

Historic Weather in Ica — Graph

°F

Ica temperature yesterday

Maximum temperature yesterday: 79 °F (at 1:00 PM)
Minimum temperature yesterday: 72 °F (at 7:00 AM)
Average temperature yesterday: 75 °F

Past Weeks' High & Low Weather Summary

 TemperatureHumidityPressure
High82 °F (Jan 28, 3:00 PM)100% (Jan 25, 4:00 AM)30.01 "Hg (Jan 25, 4:00 AM)
Low36 °F (Jan 25, 4:00 AM)55% (Jan 28, 3:00 PM)29.77 "Hg (Jan 25, 4:00 PM)
Average71 °F80%29.90 "Hg
* Reported Jan 16 11:00 AM — Jan 31 11:00 AM, Ica, Weather by CustomWeather, © 2014

Note: Actual official high and low records may vary slightly from our data, if they occured in-between our weather recording intervals... More about our weather records

Advertising

Ica weather history for previous 24 hours

 ConditionsComfort  
Time TempWeatherWind HumidityBarometerVisibility
11:00 AM
Jan 31
75 °FPartly sunny.9 mph78%29.86 "HgN/A
10:00 AM77 °FPartly sunny.6 mph74%29.89 "HgN/A
9:00 AM75 °FBroken clouds.2 mph78%29.89 "Hg5 mi
8:00 AM73 °FBroken clouds.2 mph83%29.86 "Hg5 mi
6:00 AM72 °FOvercast.8 mph88%29.83 "Hg5 mi
5:00 AM72 °FPassing clouds.8 mph88%29.80 "HgN/A
2:00 AM72 °FPassing clouds.13 mph88%29.80 "HgN/A
11:00 PM
Jan 30
72 °FPassing clouds.15 mph88%29.86 "HgN/A
10:00 PM73 °FPassing clouds.15 mph83%29.86 "HgN/A
9:00 PM73 °FPassing clouds.15 mph89%29.86 "HgN/A
8:00 PM73 °FPassing clouds.17 mph89%29.83 "HgN/A
7:00 PMN/APassing clouds.20 mphN/AN/AN/A
6:00 PM77 °FSunny.21 mph74%29.77 "Hg10 mi
5:00 PM77 °FScattered clouds.20 mph74%29.77 "HgN/A
4:00 PM79 °FScattered clouds.20 mph70%29.77 "HgN/A
3:00 PM79 °FPassing clouds.17 mph70%29.80 "HgN/A
1:00 PM79 °FPassing clouds.9 mph70%29.83 "HgN/A
12:00 PM77 °FPassing clouds.10 mph79%29.86 "HgN/A
Weather by CustomWeather, © 2014

See weather overviewHow to use our weather pages